Meteopurmerend
purmerend
Purmerend - Baaienwijk



My webcam  My webcam


Onweer radar Meer informatie blitzortung!


Regen radar Meer informatie rain snow radar


Bezoek onze andere website:

CandyAppleRed WebdesignWebdesign Purmerend Candy Apple Red

MeteopurmerendBlog

Template documentation
and downloads



Het weer levert geen direct gevaar op.    Er zijn geen waarschuwingen afgegeven.

15 daagse weersverwachting An Muileann gCearr (IE)

  • Overzicht
  • Per uur
  • 15 dagen
  • Extra
  • Vergelijk
  • Kaarten
  • Dagkaart
  • Meer »
  • Info
  • Statistieken
  • Directe link
    Temp 6h Neerslag Wind  
 05:14     21:40    Daglengte: 16:26 Vandaag
07:00
13°
3.1 mm
8
13:00
15°
3.8 mm
8
19:00
14°
 
7
 05:13     21:42    Daglengte: 16:29 Morgen
01:00
 
5
07:00
 
5
13:00
15°
 
5
19:00
15°
 
5
 05:12     21:43    Daglengte: 16:31 Zaterdag 28 Mei
01:00
 
3
07:00
4.3 mm
2
13:00
15°
 
2
19:00
16°
 
3
 05:11     21:44    Daglengte: 16:33 Zondag 29 Mei
01:00
10°
 
3
Locatie info
Region: Leinster
Latitude: 53.5333°N
Longitude: -7.3500°E
96 masl
Temp/Neerslag /Baro Onweer/Dauwpunt
    Temp Baro 1h Neerslag Dauwpunt Wind UV Bewolking  
 05:14     21:40    Daglengte: 16:26 Vandaag
06:00
12°
1014.4 hPa 1.5 mm
21%
11.8°
8
Windvlaag: 7.3 m/s
81%
07:00
13°
1014.8 hPa 1.6 mm
21%
11.8°
8
Windvlaag: 7 m/s
81%
08:00
12°
1015.5 hPa 2.0 mm
21%
11.8°
7
Windvlaag: 5.1 m/s
74%
09:00
13°
1016.2 hPa 1.8 mm
21%
12.0°
7
Windvlaag: 2.6 m/s
79%
10:00
13°
1016.8 hPa
21%
11.8°
8
Windvlaag: 4.2 m/s
69%
11:00
13°
1017.4 hPa
21%
11.7°
8
Windvlaag: 3.6 m/s
47%
12:00
14°
1017.8 hPa
21%
11.9°
8
Windvlaag: 4.1 m/s
46%
13:00
15°
1018.0 hPa
21%
10.3°
8
Windvlaag: 4.2 m/s
23%
14:00
16°
1018.3 hPa
21%
7.9°
8
Windvlaag: 4 m/s
37%
15:00
16°
1018.4 hPa
21%
7.2°
8
Windvlaag: 2.9 m/s
31%
16:00
16°
1018.5 hPa
21%
6.8°
8
Windvlaag: 2.9 m/s
37%
17:00
16°
1019.0 hPa
21%
5.8°
8
Windvlaag: 1.9 m/s
31%
18:00
15°
1019.5 hPa
21%
5.3°
8
Windvlaag: 0.2 m/s
23%
19:00
14°
1020.1 hPa
21%
4.7°
7
Windvlaag: -2.1 m/s
15%
20:00
13°
1020.6 hPa
21%
4.2°
7
Windvlaag: -1.2 m/s
22%
21:00
12°
1021.3 hPa
21%
4.1°
6
Windvlaag: -1.7 m/s
31%
22:00
11°
1022.1 hPa
21%
3.8°
5
Windvlaag: -1 m/s
29%
23:00
10°
1022.7 hPa
21%
3.7°
5
Windvlaag: -0.5 m/s
39%
 05:13     21:42    Daglengte: 16:29 Morgen
00:00
Voelt als: 6.8°
1023.1 hPa
21%
3.6°
5
Windvlaag: 1.2 m/s
48%
01:00
Voelt als: 6.3°
1023.2 hPa
21%
3.6°
5
Windvlaag: 2.2 m/s
40%
02:00
Voelt als: 5.8°
1023.3 hPa
21%
3.5°
5
Windvlaag: 2.6 m/s
39%
03:00
Voelt als: 5.5°
1023.5 hPa
21%
3.3°
5
Windvlaag: 2.9 m/s
34%
04:00
Voelt als: 5.3°
1023.9 hPa
21%
3.2°
5
Windvlaag: 2.1 m/s
40%
05:00
Voelt als: 5.1°
1024.2 hPa
21%
3.2°
5
Windvlaag: 1.8 m/s
44%
06:00
Voelt als: 5.1°
1024.5 hPa
21%
2.9°
5
Windvlaag: 1.8 m/s
30%
07:00
Voelt als: 5.9°
1025.1 hPa
21%
3.1°
5
Windvlaag: 1 m/s
27%
08:00
10°
Voelt als: 7.3°
1025.5 hPa
21%
4.1°
5
Windvlaag: 0.6 m/s
33%
09:00
11°
1025.9 hPa
21%
4.4°
5
Windvlaag: -0.4 m/s
31%
10:00
12°
1026.2 hPa
21%
4.6°
5
Windvlaag: -0.8 m/s
24%
11:00
13°
1026.3 hPa
21%
5.0°
5
Windvlaag: -1.1 m/s
31%
12:00
14°
1026.6 hPa
21%
5.4°
5
Windvlaag: -1.3 m/s
25%
13:00
15°
1026.6 hPa
21%
5.5°
5
Windvlaag: -0.8 m/s
22%
14:00
16°
1026.6 hPa
21%
5.7°
5
Windvlaag: -1 m/s
25%
15:00
16°
1026.5 hPa
21%
5.9°
5
Windvlaag: -1.2 m/s
32%
16:00
17°
1026.4 hPa
21%
5.8°
5
Windvlaag: -0.9 m/s
46%
17:00
17°
1026.5 hPa
21%
5.8°
5
Windvlaag: -0.9 m/s
60%
18:00
16°
1026.7 hPa
21%
5.4°
5
Windvlaag: -2.7 m/s
68%
19:00
15°
1027.0 hPa
21%
4.8°
5
Windvlaag: -6 m/s
57%
20:00
14°
1027.1 hPa
21%
4.6°
4
Windvlaag: -5.7 m/s
46%
21:00
12°
1027.7 hPa
21%
4.2°
5
Windvlaag: -5.5 m/s
40%
22:00
10°
1029.4 hPa
100%
6.8°
4
Windvlaag: -4.5 m/s
56%
23:00
Voelt als: 7.4°
1029.8 hPa
100%
6.6°
4
Windvlaag: -3.1 m/s
55%
 05:12     21:43    Daglengte: 16:31 Zaterdag 28 Mei
00:00
Voelt als: 6.6°
1030.0 hPa
100%
6.3°
3
Windvlaag: -2.2 m/s
36%
01:00
Voelt als: 5.9°
1029.8 hPa
100%
6.1°
3
Windvlaag: -1.8 m/s
38%
02:00
Voelt als: 5.3°
1029.8 hPa
100%
6.2°
3
Windvlaag: -2.1 m/s
36%
03:00
Voelt als: 5.0°
1029.8 hPa
100%
6.0°
3
Windvlaag: -2.2 m/s
26%
04:00
Voelt als: 4.8°
1029.9 hPa
100%
5.6°
2
Windvlaag: -2 m/s
24%
05:00
Voelt als: 4.6°
1029.8 hPa
100%
5.0°
2
Windvlaag: -1.8 m/s
47%
06:00
Voelt als: 5.3°
1030.0 hPa
100%
6.2°
2
Windvlaag: -2 m/s
32%
07:00
Voelt als: 7.2°
1029.5 hPa 4.3 mm
61%
6.9°
2
Windvlaag: -1.9 m/s
26%
08:00
10°
Voelt als: 9.2°
1029.8 hPa
21%
7.2°
2
Windvlaag: -3.5 m/s
62%
09:00
11°
1030.0 hPa
21%
6.9°
2
Windvlaag: -4.3 m/s
36%
10:00
12°
1029.8 hPa
21%
6.9°
2
Windvlaag: -4.5 m/s
40%
11:00
13°
1029.6 hPa
21%
6.5°
2
Windvlaag: -4.5 m/s
43%
12:00
14°
1029.5 hPa
21%
6.5°
2
Windvlaag: -4.6 m/s
32%
13:00
15°
1029.2 hPa
21%
6.1°
2
Windvlaag: -4.6 m/s
40%
14:00
16°
1028.9 hPa
21%
6.2°
2
Windvlaag: -4.7 m/s
61%
15:00
16°
1028.7 hPa
21%
6.4°
2
Windvlaag: -4.7 m/s
56%
16:00
17°
1028.4 hPa
21%
6.8°
3
Windvlaag: -4.6 m/s
67%
17:00
17°
1028.0 hPa
21%
6.9°
3
Windvlaag: -4.5 m/s
74%
18:00
17°
1027.8 hPa
21%
7.4°
3
Windvlaag: -5.6 m/s
37%
19:00
16°
1027.6 hPa
21%
7.9°
3
Windvlaag: -5.5 m/s
38%
20:00
16°
1027.5 hPa
21%
9.8°
3
Windvlaag: -4.9 m/s
31%
21:00
15°
1027.6 hPa
21%
10.4°
3
Windvlaag: -4.8 m/s
25%
22:00
14°
1027.9 hPa
21%
9.2°
3
Windvlaag: -4.3 m/s
37%
23:00
12°
1027.8 hPa
21%
10.4°
3
Windvlaag: 6.6 m/s
17%
 05:11     21:44    Daglengte: 16:33 Zondag 29 Mei
00:00
11°
1027.8 hPa
21%
9.1°
3
Windvlaag: 6.1 m/s
16%
01:00
10°
Voelt als: 8.4°
1027.6 hPa
21%
8.1°
3
Windvlaag: 6.6 m/s
64%
02:00
Voelt als: 3.5°
1025.7 hPa 5.2 mm
100%
4.2°
3
Windvlaag: 7 m/s
74%
03:00
Voelt als: 2.3°
1025.4 hPa 5.2 mm
100%
3.4°
3
Windvlaag: 7.9 m/s
72%
04:00
Voelt als: 1.7°
1025.1 hPa 5.2 mm
100%
3.1°
3
Windvlaag: 8.2 m/s
75%
05:00
Voelt als: 0.8°
1024.5 hPa 5.2 mm
100%
2.8°
3
Windvlaag: 8.4 m/s
72%
Temp/Neerslag /Baro Onweer/Dauwpunt
    Temp Baro Neerslag Dauwpunt Wind Bewolking  
 05:14     21:40    Daglengte: 16:26 Vandaag
07:00
13°
1014.8 hPa 3.1 mm 11.8°
8
81%
10:00
13°
1016.8 hPa 3.8 mm 11.8°
8
69%
13:00
15°
1018.0 hPa   10.3°
8
23%
16:00
16°
1018.5 hPa   6.8°
8
37%
19:00
14°
1020.1 hPa   4.7°
7
15%
22:00
11°
1022.1 hPa   3.8°
5
29%
 05:13     21:42    Daglengte: 16:29 Morgen
01:00
Voelt als: 6.3°
1023.2 hPa   3.6°
5
40%
04:00
Voelt als: 5.3°
1023.9 hPa   3.2°
5
40%
07:00
Voelt als: 5.9°
1025.1 hPa   3.1°
5
27%
10:00
12°
1026.2 hPa   4.6°
5
24%
13:00
15°
1026.6 hPa   5.5°
5
22%
16:00
17°
1026.4 hPa   5.8°
5
46%
19:00
15°
1027.0 hPa   4.8°
5
57%
22:00
10°
1029.4 hPa   6.8°
4
56%
 05:12     21:43    Daglengte: 16:31 Zaterdag 28 Mei
01:00
Voelt als: 5.9°
1029.8 hPa   6.1°
3
38%
04:00
Voelt als: 4.8°
1029.9 hPa   5.6°
2
24%
07:00
Voelt als: 7.2°
1029.5 hPa 4.3 mm 6.9°
2
26%
10:00
12°
1029.8 hPa   6.9°
2
40%
13:00
15°
1029.2 hPa   6.1°
2
40%
16:00
17°
1028.4 hPa   6.8°
3
67%
19:00
16°
1027.6 hPa   7.9°
3
38%
22:00
14°
1027.9 hPa   9.2°
3
37%
 05:11     21:44    Daglengte: 16:33 Zondag 29 Mei
01:00
10°
Voelt als: 8.4°
1027.6 hPa   8.1°
3
64%
04:00
Voelt als: 1.7°
1025.1 hPa 15.5 mm 3.1°
3
75%
07:00
Voelt als: 5.9°
1023.8 hPa 15.4 mm 5.9°
3
67%
10:00
13°
1023.8 hPa 4.8 mm 6.9°
4
1%
13:00
16°
1022.0 hPa 4.8 mm 8.7°
4
1%
16:00
16°
1020.3 hPa 4.8 mm 8.6°
4
1%
19:00
15°
1018.9 hPa 4.8 mm 9.4°
4
1%
22:00
Voelt als: 7.1°
1018.9 hPa 4.8 mm 6.5°
3
0%
 05:10     21:46    Daglengte: 16:36 Maandag 30 Mei
01:00
Voelt als: 6.0°
1017.1 hPa 4.8 mm 6.0°
2
0%
04:00
Voelt als: 6.9°
1015.6 hPa 4.9 mm 7.1°
3
1%
07:00
Voelt als: 6.1°
1014.6 hPa 5.0 mm 5.2°
3
1%
10:00
Voelt als: 7.1°
1013.9 hPa 5.1 mm 5.1°
4
1%
13:00
13°
1013.3 hPa 5.3 mm 4.2°
4
1%
16:00
12°
1013.0 hPa 6.5 mm 9.1°
4
1%
19:00
12°
1013.2 hPa 7.5 mm 8.4°
3
1%
22:00
Voelt als: 5.8°
1014.6 hPa 7.8 mm 6.1°
2
0%
 05:09     21:47    Daglengte: 16:38 Dinsdag 31 Mei
01:00
Voelt als: 3.6°
1015.0 hPa 7.8 mm 4.4°
2
0%
04:00
Voelt als: 2.6°
1014.9 hPa 7.8 mm 3.6°
2
0%
07:00
Voelt als: 5.3°
1014.5 hPa 7.8 mm 5.6°
2
0%
10:00
12°
1014.3 hPa 7.8 mm 7.4°
2
0%
13:00
15°
1013.3 hPa 8.1 mm 8.1°
2
0%
16:00
15°
1012.1 hPa 9.0 mm 8.5°
2
1%
19:00
15°
1011.8 hPa 10.6 mm 9.8°
1
1%
22:00
Voelt als: 8.0°
1012.7 hPa 11.5 mm 8.2°
2
0%
 05:08     21:48    Daglengte: 16:40 Woensdag 01 Jun
01:00
Voelt als: 5.6°
1012.6 hPa 11.6 mm 5.7°
2
0%
04:00
Voelt als: 5.0°
1012.3 hPa 11.7 mm 5.5°
2
1%
07:00
Voelt als: 7.1°
1012.4 hPa 12.1 mm 7.1°
1
1%
10:00
12°
1012.1 hPa 12.3 mm 8.9°
2
1%
13:00
15°
1011.6 hPa 13.9 mm 11.4°
1
1%
16:00
16°
1010.9 hPa 16.0 mm 11.2°
0
0%
19:00
14°
1010.1 hPa 18.7 mm 11.4°
1
0%
22:00
11°
1010.3 hPa 19.8 mm 9.1°
1
1%
 05:07     21:49    Daglengte: 16:42 Donderdag 02 Jun
01:00
Voelt als: 7.3°
1010.8 hPa 20.0 mm 7.3°
2
1%
04:00
Voelt als: 5.2°
1010.2 hPa   6.0°
2
1%
07:00
Voelt als: 7.0°
1010.6 hPa 40.0 mm 7.6°
2
1%
13:00
10°
1010.9 hPa 42.7 mm 9.8°
3
1%
19:00
12°
1010.0 hPa 47.4 mm 10.4°
4
1%
 05:06     21:50    Daglengte: 16:44 Vrijdag 03 Jun
01:00
10°
Voelt als: 6.6°
1010.0 hPa 49.3 mm 8.7°
6
1%
07:00
10°
Voelt als: 6.4°
1009.3 hPa 55.6 mm 9.1°
7
1%
13:00
10°
1008.8 hPa 60.1 mm 9.3°
6
1%
19:00
11°
1007.8 hPa 63.8 mm 10.9°
5
1%
 05:06     21:51    Daglengte: 16:45 Zaterdag 04 Jun
01:00
11°
1008.0 hPa 64.5 mm 10.7°
5
1%
07:00
11°
1008.1 hPa 65.8 mm 10.6°
6
1%
13:00
15°
1008.3 hPa 67.6 mm 9.9°
7
1%
19:00
12°
1008.1 hPa 70.3 mm 10.6°
4
1%
 05:05     21:52    Daglengte: 16:47 Zondag 05 Jun
01:00
Voelt als: 8.1°
1020.8 hPa 0.6 mm 7.5°
1
56%
07:00
Voelt als: 8.9°
1020.2 hPa 0.3 mm 7.8°
1
51%
13:00
15°
1020.4 hPa 0.7 mm 10.2°
1
66%
19:00
15°
1019.8 hPa 1.0 mm 11.2°
2
58%
 05:04     21:53    Daglengte: 16:49 Maandag 06 Jun
01:00
1020.4 hPa 0.3 mm 7.4°
1
53%
07:00
Voelt als: 8.7°
1019.9 hPa 0.3 mm 7.6°
1
49%
13:00
15°
1019.5 hPa 0.5 mm 10.4°
1
65%
19:00
15°
1018.3 hPa 1.0 mm 11.2°
1
62%
 05:04     21:54    Daglengte: 16:50 Dinsdag 07 Jun
01:00
1018.1 hPa 0.4 mm 8.2°
1
61%
07:00
10°
Voelt als: 9.6°
1017.0 hPa 0.2 mm 8.5°
1
63%
13:00
15°
1016.6 hPa 0.5 mm 11.4°
1
70%
19:00
15°
1015.5 hPa 1.5 mm 11.6°
1
67%
 05:03     21:55    Daglengte: 16:52 Woensdag 08 Jun
01:00
Voelt als: 9.4°
1015.1 hPa 0.4 mm 8.3°
1
71%
07:00
10°
1013.6 hPa 0.9 mm 9.1°
1
80%
13:00
15°
1013.1 hPa 2.1 mm 11.6°
1
74%
19:00
15°
1012.0 hPa 2.6 mm 12.1°
1
65%
 05:03     21:56    Daglengte: 16:53 Donderdag 09 Jun
01:00
10°
Voelt als: 9.6°
1012.9 hPa 0.5 mm 8.2°
1
60%
07:00
10°
Voelt als: 9.8°
1013.0 hPa 0.4 mm 8.7°
1
68%
13:00
16°
1013.7 hPa 0.1 mm 11.4°
1
71%
19:00
15°
1013.6 hPa 1.6 mm 11.9°
2
62%
 05:02     21:57    Daglengte: 16:55 Vrijdag 10 Jun
01:00
10°
Voelt als: 9.3°
1014.6 hPa 0.4 mm 8.3°
1
62%
  CAPE Lifted Index Hail Supercell Tornado SRH 3km CL BTM PRES CL TOP PRES Swiss DWD icon SMHI TS
 05:14     21:40    Daglengte: 16:26 Vandaag
06:00 1 J/kg 8.4 K 0 % 0 % 0 % 0 m²/s² 0 0 8.61
07:00 11 J/kg 8.6 K 0 % 0 % 0 % 0 m²/s² 0 0 8.78
08:00 30 J/kg 8.4 K 0 % 0 % 0 % 0 m²/s² 0 0 8.79
09:00 44 J/kg 9.2 K 0 % 0 % 0 % 0 m²/s² 0 0 10.13
10:00 33 J/kg 9.7 K 0 % 0 % 0 % 0 m²/s² 0 0 11.23
11:00 83 J/kg 8.9 K 0 % 0 % 0 % 0 m²/s² 0 0 12.38
12:00 99 J/kg 9.0 K 0 % 0 % 0 % 0 m²/s² 0 0 14.1
13:00 27 J/kg 11.9 K 0 % 0 % 0 % 0 m²/s² 0 0 17.87
14:00 8 J/kg 12.8 K 0 % 0 % 0 % 0 m²/s² 0 0 19.52
15:00 11 J/kg 12.8 K 0 % 0 % 0 % 0 m²/s² 0 0 19.97
16:00 7 J/kg 13.3 K 0 % 0 % 0 % 0 m²/s² 0 0 20.71
17:00 3 J/kg 13.7 K 0 % 0 % 0 % 0 m²/s² 0 0 20.6
18:00 4 J/kg 14.3 K 0 % 0 % 0 % 0 m²/s² 0 0 21.2
19:00 3 J/kg 14.9 K 0 % 0 % 0 % 0 m²/s² 0 0 21.8
20:00 3 J/kg 15.7 K 0 % 0 % 0 % 0 m²/s² 0 0 23.68
21:00 2 J/kg 16.4 K 0 % 0 % 0 % 0 m²/s² 0 0 25.43
22:00 0 J/kg 17.4 K 0 % 0 % 0 % 0 m²/s² 0 0 26.88
23:00 0 J/kg 17.8 K 0 % 0 % 0 % 0 m²/s² 0 0 27.76
 05:13     21:42    Daglengte: 16:29 Morgen
00:00 0 J/kg 17.6 K 0 % 0 % 0 % 0 m²/s² 0 0 27.59
01:00 0 J/kg 18.0 K 0 % 0 % 0 % 0 m²/s² 0 0 27.54
02:00 0 J/kg 18.2 K 0 % 0 % 0 % 0 m²/s² 0 0 27.77
03:00 0 J/kg 18.2 K 0 % 0 % 0 % 0 m²/s² 0 0 27.77
04:00 0 J/kg 18.1 K 0 % 0 % 0 % 0 m²/s² 0 0 26.83
05:00 0 J/kg 18.0 K 0 % 0 % 0 % 0 m²/s² 0 0 26.07
06:00 0 J/kg 18.1 K 0 % 0 % 0 % 0 m²/s² 0 0 25.3
07:00 0 J/kg 18.0 K 0 % 0 % 0 % 0 m²/s² 0 0 24.54
08:00 0 J/kg 17.2 K 0 % 0 % 0 % 0 m²/s² 0 0 23.17
09:00 1 J/kg 16.4 K 0 % 0 % 0 % 0 m²/s² 0 0 21.74
10:00 6 J/kg 15.5 K 0 % 0 % 0 % 0 m²/s² 0 0 20.33
11:00 4 J/kg 14.5 K 0 % 0 % 0 % 0 m²/s² 0 0 19.09
12:00 11 J/kg 13.6 K 0 % 0 % 0 % 0 m²/s² 0 0 18.07
13:00 7 J/kg 12.9 K 0 % 0 % 0 % 0 m²/s² 0 0 16.86
14:00 4 J/kg 12.0 K 0 % 0 % 0 % 0 m²/s² 0 0 15.6
15:00 4 J/kg 11.0 K 0 % 0 % 0 % 0 m²/s² 0 0 13.67
16:00 8 J/kg 10.1 K 0 % 0 % 0 % 0 m²/s² 0 0 11.72
17:00 11 J/kg 9.2 K 0 % 0 % 0 % 0 m²/s² 0 0 10.64
18:00 9 J/kg 8.8 K 0 % 0 % 0 % 0 m²/s² 0 0 9.79
19:00 1 J/kg 9.5 K 0 % 0 % 0 % 0 m²/s² 0 0 10.28
20:00 0 J/kg 10.3 K 0 % 0 % 0 % 0 m²/s² 0 0 11.14
21:00 0 J/kg 12.0 K 0 % 0 % 0 % 0 m²/s² 0 0 12.66
22:00 0 J/kg 13.4 K 0 % 0 % 0 % 0 m²/s² 0 0 14.15
23:00 0 J/kg 14.1 K 0 % 0 % 0 % 0 m²/s² 0 0 15.18
 05:12     21:43    Daglengte: 16:31 Zaterdag 28 Mei
00:00 0 J/kg 14.8 K 0 % 0 % 0 % 0 m²/s² 0 0 16.03
01:00 0 J/kg 14.5 K 0 % 0 % 0 % 0 m²/s² 0 0 15.67
02:00 0 J/kg 14.5 K 0 % 0 % 0 % 0 m²/s² 0 0 15.88
03:00 0 J/kg 15.0 K 0 % 0 % 0 % 0 m²/s² 0 0 16.62
04:00 0 J/kg 15.0 K 0 % 0 % 0 % 0 m²/s² 0 0 17.04
05:00 0 J/kg 13.1 K 0 % 0 % 0 % 0 m²/s² 0 0 15.08
06:00 0 J/kg 12.4 K 0 % 0 % 0 % 0 m²/s² 0 0 14.38
07:00 0 J/kg 11.1 K 0 % 0 % 0 % 0 m²/s² 0 0 13.02 2
08:00 0 J/kg 11.3 K 0 % 0 % 0 % 0 m²/s² 0 0 13.34 2
09:00 0 J/kg 11.3 K 0 % 0 % 0 % 0 m²/s² 0 0 13.49 1
10:00 0 J/kg 11.6 K 0 % 0 % 0 % 0 m²/s² 0 0 13.79 3
11:00 0 J/kg 10.9 K 0 % 0 % 0 % 0 m²/s² 0 0 13.03 2
12:00 0 J/kg 9.7 K 0 % 0 % 0 % 0 m²/s² 0 0 11.62 2
13:00 0 J/kg 9.1 K 0 % 0 % 0 % 0 m²/s² 0 0 11.02 2
14:00 0 J/kg 9.8 K 0 % 0 % 0 % 0 m²/s² 0 0 11.48 3
15:00 0 J/kg 9.3 K 0 % 0 % 0 % 0 m²/s² 0 0 10.92 3
16:00 0 J/kg 9.0 K 0 % 0 % 0 % 0 m²/s² 0 0 10.68 3
17:00 0 J/kg 8.8 K 0 % 0 % 0 % 0 m²/s² 0 0 10.48 3
18:00 0 J/kg 8.4 K 0 % 0 % 0 % 0 m²/s² 0 0 10.14 2
19:00 7 J/kg 7.9 K 0 % 0 % 0 % 0 m²/s² 0 0 10.15 2
20:00 17 J/kg 7.6 K 0 % 0 % 0 % 0 m²/s² 0 0 9.79 3
21:00 4 J/kg 7.7 K 0 % 0 % 0 % 0 m²/s² 0 0 9.32 2
22:00 0 J/kg 7.8 K 0 % 0 % 0 % 0 m²/s² 0 0 9.09 2
23:00 0 J/kg 8.2 K 0 % 0 % 0 % 0 m²/s² 0 0 9.28 2
 05:11     21:44    Daglengte: 16:33 Zondag 29 Mei
00:00 0 J/kg 8.2 K 0 % 0 % 0 % 0 m²/s² 0 0 9.34 2
01:00 0 J/kg 8.1 K 0 % 0 % 0 % 0 m²/s² 0 0 9.24 2
02:00 0 J/kg 8.2 K 0 % 0 % 0 % 0 m²/s² 0 0 9.49
03:00 0 J/kg 8.2 K 0 % 0 % 0 % 0 m²/s² 0 0 9.28
04:00 0 J/kg 8.3 K 0 % 0 % 0 % 0 m²/s² 0 0 9.59
05:00 0 J/kg 8.2 K 0 % 0 % 0 % 0 m²/s² 0 0 9.43
Temp Baro Wind Neerslag
  EWN Forecast EWN WRFDA DWD ICON FMI HIRLAM MET Norway GFS
 05:14     21:40    Daglengte: 16:26 Vandaag
07:00 12.5° 1014.8 hPa 8.1 m/s 3.1 mm 12.0° 1013.2 hPa 7.6 m/s 8.6 mm 12.6° 1016.0 hPa 8.0 m/s 0.0 mm 12.1° 1013.9 hPa 7.7 m/s
10:00 12.8° 1016.8 hPa 7.5 m/s 3.8 mm 13.2° 1015.5 hPa 6.7 m/s 14.3 mm 12.8° 1016.9 hPa 8.5 m/s 0.0 mm 12.3° 1016.5 hPa 5.0 m/s
13:00 15.1° 1018.0 hPa 8.1 m/s 0.0 mm 15.2° 1016.9 hPa 8.1 m/s 15.3 mm 14.5° 1018.1 hPa 7.8 m/s 0.0 mm 15.4° 1018.0 hPa 8.5 m/s
16:00 16.3° 1018.5 hPa 8.1 m/s 0.0 mm 14.8° 1017.7 hPa 8.4 m/s 15.5 mm 17.1° 1018.6 hPa 8.0 m/s 0.0 mm 14.8° 1019.1 hPa 8.0 m/s
19:00 13.8° 1020.1 hPa 7.4 m/s 0.0 mm 12.6° 1019.7 hPa 7.4 m/s 15.5 mm 15.8° 1020.0 hPa 6.5 m/s 0.0 mm 12.4° 1021.1 hPa 6.4 m/s
22:00 10.8° 1022.1 hPa 5.5 m/s 0.0 mm 7.5° 1021.9 hPa 4.7 m/s 15.5 mm 13.1° 1021.6 hPa 5.2 m/s 0.0 mm 8.2° 1023.9 hPa 4.9 m/s
 05:13     21:42    Daglengte: 16:29 Morgen
01:00 9.0° 1023.2 hPa 5.2 m/s 0.0 mm 4.9° 1022.9 hPa 4.2 m/s 15.5 mm 11.8° 1022.8 hPa 5.2 m/s 0.0 mm 5.0° 1025.2 hPa 3.6 m/s
04:00 8.2° 1023.9 hPa 5.0 m/s 0.0 mm 4.3° 1023.6 hPa 4.2 m/s 15.5 mm 11.0° 1023.2 hPa 5.7 m/s 0.0 mm 4.7° 1026.0 hPa 3.5 m/s
07:00 8.6° 1025.1 hPa 5.0 m/s 0.0 mm 7.9° 1024.7 hPa 4.6 m/s 15.5 mm 10.6° 1024.6 hPa 5.1 m/s 0.0 mm 6.9° 1026.9 hPa 3.7 m/s
10:00 11.9° 1026.2 hPa 5.5 m/s 0.0 mm 11.7° 1025.9 hPa 5.7 m/s 15.5 mm 12.2° 1025.5 hPa 4.7 m/s 0.0 mm 11.8° 1027.8 hPa 5.4 m/s
13:00 14.8° 1026.6 hPa 5.0 m/s 0.0 mm 14.7° 1026.5 hPa 5.1 m/s 15.5 mm 15.1° 1025.7 hPa 4.1 m/s 0.0 mm 14.9° 1028.0 hPa 5.4 m/s
16:00 16.5° 1026.4 hPa 5.0 m/s 0.0 mm 16.4° 1026.2 hPa 5.1 m/s 15.5 mm 17.3° 1025.6 hPa 3.8 m/s 0.0 mm 16.2° 1027.7 hPa 5.1 m/s
19:00 15.5° 1027.0 hPa 4.8 m/s 0.0 mm 15.2° 1026.9 hPa 4.6 m/s 15.5 mm 17.6° 1025.6 hPa 3.8 m/s 0.0 mm 15.1° 1028.3 hPa 3.7 m/s
22:00 10.2° 1029.4 hPa 4.1 m/s 0.0 mm 7.6° 1028.1 hPa 3.1 m/s 15.5 mm 8.5° 1030.2 hPa 2.6 m/s
 05:12     21:43    Daglengte: 16:31 Zaterdag 28 Mei
01:00 7.8° 1029.8 hPa 2.9 m/s 0.0 mm 3.7° 1028.9 hPa 2.7 m/s 15.5 mm 5.8° 1030.6 hPa 1.8 m/s
04:00 6.5° 1029.9 hPa 2.4 m/s 0.0 mm 2.2° 1028.5 hPa 2.4 m/s 15.5 mm 4.8° 1030.3 hPa 1.4 m/s
07:00 8.0° 1029.5 hPa 1.6 m/s 4.3 mm 7.0° 1028.7 hPa 1.7 m/s 15.5 mm 8.5° 1029.3 hPa 0.4 m/s 3.9 mm 7.1° 1030.5 hPa 0.8 m/s
10:00 12.3° 1029.8 hPa 2.1 m/s 0.0 mm 12.5° 1028.9 hPa 1.2 m/s 15.5 mm 12.3° 1029.7 hPa 2.0 m/s 0.0 mm 12.7° 1029.9 hPa 1.4 m/s
13:00 15.0° 1029.2 hPa 1.9 m/s 0.0 mm 15.9° 1027.9 hPa 1.2 m/s 15.5 mm 14.9° 1029.2 hPa 1.6 m/s 0.0 mm 15.3° 1029.3 hPa 1.7 m/s
16:00 16.6° 1028.4 hPa 2.6 m/s 0.0 mm 17.8° 1027.3 hPa 2.2 m/s 15.5 mm 15.9° 1028.6 hPa 2.6 m/s 0.0 mm 17.0° 1028.2 hPa 2.0 m/s
19:00 16.4° 1027.6 hPa 3.1 m/s 0.0 mm 17.9° 1026.3 hPa 2.3 m/s 15.5 mm 16.0° 1028.0 hPa 3.0 m/s 0.0 mm 16.7° 1027.5 hPa 1.4 m/s
22:00 13.5° 1027.9 hPa 3.2 m/s 0.0 mm 14.4° 1026.2 hPa 3.0 m/s 15.5 mm 13.5° 1028.1 hPa 3.0 m/s 0.0 mm 11.1° 1027.5 hPa 2.6 m/s
 05:11     21:44    Daglengte: 16:33 Zondag 29 Mei
01:00 9.8° 1027.6 hPa 2.8 m/s 0.0 mm 7.1° 1025.9 hPa 3.0 m/s 15.5 mm 10.5° 1028.1 hPa 2.7 m/s 0.0 mm 7.6° 1027.2 hPa 2.4 m/s
04:00 4.0° 1025.1 hPa 2.6 m/s 15.5 mm 4.0° 1025.1 hPa 2.6 m/s 15.5 mm 6.0° 1025.9 hPa 2.6 m/s
07:00 7.7° 1023.8 hPa 2.8 m/s 15.4 mm 7.7° 1023.8 hPa 2.8 m/s 15.5 mm 7.9° 1025.1 hPa 2.5 m/s
10:00 12.8° 1023.8 hPa 4.0 m/s 4.8 mm 12.8° 1023.8 hPa 4.0 m/s 4.8 mm
13:00 15.9° 1022.0 hPa 4.2 m/s 4.8 mm 15.9° 1022.0 hPa 4.2 m/s 4.8 mm
16:00 16.3° 1020.3 hPa 4.2 m/s 4.8 mm 16.3° 1020.3 hPa 4.2 m/s 4.8 mm
19:00 15.0° 1018.9 hPa 4.2 m/s 4.8 mm 15.0° 1018.9 hPa 4.2 m/s 4.8 mm
22:00 8.9° 1018.9 hPa 3.2 m/s 4.8 mm 8.9° 1018.9 hPa 3.2 m/s 4.8 mm
 05:10     21:46    Daglengte: 16:36 Maandag 30 Mei
01:00 7.3° 1017.1 hPa 2.1 m/s 4.8 mm 7.3° 1017.1 hPa 2.1 m/s 4.8 mm
04:00 8.4° 1015.6 hPa 2.6 m/s 4.9 mm 8.4° 1015.6 hPa 2.6 m/s 4.9 mm
07:00 8.2° 1014.6 hPa 3.5 m/s 5.0 mm 8.2° 1014.6 hPa 3.5 m/s 5.0 mm
10:00 9.3° 1013.9 hPa 4.0 m/s 5.1 mm 9.3° 1013.9 hPa 4.0 m/s 5.1 mm
13:00 12.8° 1013.3 hPa 4.2 m/s 5.3 mm 12.8° 1013.3 hPa 4.2 m/s 5.3 mm
16:00 12.0° 1013.0 hPa 4.1 m/s 6.5 mm 12.0° 1013.0 hPa 4.1 m/s 6.5 mm
19:00 11.9° 1013.2 hPa 2.8 m/s 7.5 mm 11.9° 1013.2 hPa 2.8 m/s 7.5 mm
22:00 7.3° 1014.6 hPa 2.3 m/s 7.8 mm 7.3° 1014.6 hPa 2.3 m/s 7.8 mm
 05:09     21:47    Daglengte: 16:38 Dinsdag 31 Mei
01:00 5.5° 1015.0 hPa 2.4 m/s 7.8 mm 5.5° 1015.0 hPa 2.4 m/s 7.8 mm
04:00 4.5° 1014.9 hPa 2.3 m/s 7.8 mm 4.5° 1014.9 hPa 2.3 m/s 7.8 mm
07:00 6.5° 1014.5 hPa 1.8 m/s 7.8 mm 6.5° 1014.5 hPa 1.8 m/s 7.8 mm
10:00 12.3° 1014.3 hPa 2.2 m/s 7.8 mm 12.3° 1014.3 hPa 2.2 m/s 7.8 mm
13:00 14.8° 1013.3 hPa 1.9 m/s 8.1 mm 14.8° 1013.3 hPa 1.9 m/s 8.1 mm
16:00 15.4° 1012.1 hPa 1.6 m/s 9.0 mm 15.4° 1012.1 hPa 1.6 m/s 9.0 mm
19:00 14.7° 1011.8 hPa 0.7 m/s 10.6 mm 14.7° 1011.8 hPa 0.7 m/s 10.6 mm
22:00 9.3° 1012.7 hPa 2.4 m/s 11.5 mm 9.3° 1012.7 hPa 2.4 m/s 11.5 mm
 05:08     21:48    Daglengte: 16:40 Woensdag 01 Jun
01:00 6.6° 1012.6 hPa 1.6 m/s 11.6 mm 6.6° 1012.6 hPa 1.6 m/s 11.6 mm
04:00 5.9° 1012.3 hPa 1.5 m/s 11.7 mm 5.9° 1012.3 hPa 1.5 m/s 11.7 mm
07:00 7.8° 1012.4 hPa 1.5 m/s 12.1 mm 7.8° 1012.4 hPa 1.5 m/s 12.1 mm
10:00 12.0° 1012.1 hPa 2.1 m/s 12.3 mm 12.0° 1012.1 hPa 2.1 m/s 12.3 mm
13:00 15.3° 1011.6 hPa 0.5 m/s 13.9 mm 15.3° 1011.6 hPa 0.5 m/s 13.9 mm
16:00 15.6° 1010.9 hPa 0.4 m/s 16.0 mm 15.6° 1010.9 hPa 0.4 m/s 16.0 mm
19:00 13.9° 1010.1 hPa 0.6 m/s 18.7 mm 13.9° 1010.1 hPa 0.6 m/s 18.7 mm
22:00 11.0° 1010.3 hPa 1.5 m/s 19.8 mm 11.0° 1010.3 hPa 1.5 m/s 19.8 mm
 05:07     21:49    Daglengte: 16:42 Donderdag 02 Jun
01:00 8.2° 1010.8 hPa 1.7 m/s 20.0 mm 8.2° 1010.8 hPa 1.7 m/s 20.0 mm
04:00 6.8° 1010.2 hPa 2.3 m/s 20.0 mm 6.8° 1010.2 hPa 2.3 m/s 20.0 mm
07:00 8.4° 1010.6 hPa 2.3 m/s 20.0 mm 8.4° 1010.6 hPa 2.3 m/s 20.0 mm
13:00 10.3° 1010.9 hPa 3.0 m/s 22.3 mm 10.3° 1010.9 hPa 3.0 m/s 22.3 mm
19:00 12.3° 1010.0 hPa 3.7 m/s 24.3 mm 12.3° 1010.0 hPa 3.7 m/s 24.3 mm
 05:06     21:50    Daglengte: 16:44 Vrijdag 03 Jun
01:00 9.6° 1010.0 hPa 6.5 m/s 24.7 mm 9.6° 1010.0 hPa 6.5 m/s 24.7 mm
07:00 9.5° 1009.3 hPa 6.8 m/s 29.5 mm 9.5° 1009.3 hPa 6.8 m/s 29.5 mm
13:00 10.1° 1008.8 hPa 5.7 m/s 30.2 mm 10.1° 1008.8 hPa 5.7 m/s 30.2 mm
19:00 11.2° 1007.8 hPa 5.2 m/s 32.0 mm 11.2° 1007.8 hPa 5.2 m/s 32.0 mm
 05:06     21:51    Daglengte: 16:45 Zaterdag 04 Jun
01:00 11.0° 1008.0 hPa 4.9 m/s 32.3 mm 11.0° 1008.0 hPa 4.9 m/s 32.3 mm
07:00 11.0° 1008.1 hPa 5.8 m/s 33.0 mm 11.0° 1008.1 hPa 5.8 m/s 33.0 mm
13:00 15.1° 1008.3 hPa 7.3 m/s 34.1 mm 15.1° 1008.3 hPa 7.3 m/s 34.1 mm
19:00 11.7° 1008.1 hPa 3.8 m/s 35.4 mm 11.7° 1008.1 hPa 3.8 m/s 35.4 mm
 05:05     21:52    Daglengte: 16:47 Zondag 05 Jun
01:00 8.6° 1020.8 hPa 1.5 m/s 0.6 mm
07:00 9.0° 1020.2 hPa 1.2 m/s 0.3 mm
13:00 15.0° 1020.4 hPa 1.4 m/s 0.7 mm
19:00 14.8° 1019.8 hPa 1.5 m/s 1.0 mm
 05:04     21:53    Daglengte: 16:49 Maandag 06 Jun
01:00 8.7° 1020.4 hPa 0.8 m/s 0.3 mm
07:00 8.7° 1019.9 hPa 0.8 m/s 0.3 mm
13:00 14.9° 1019.5 hPa 0.9 m/s 0.5 mm
19:00 15.0° 1018.3 hPa 1.1 m/s 1.0 mm
 05:04     21:54    Daglengte: 16:50 Dinsdag 07 Jun
01:00 9.3° 1018.1 hPa 0.8 m/s 0.4 mm
07:00 9.6° 1017.0 hPa 0.9 m/s 0.2 mm
13:00 15.3° 1016.6 hPa 1.3 m/s 0.5 mm
19:00 14.8° 1015.5 hPa 1.2 m/s 1.5 mm
 05:03     21:55    Daglengte: 16:52 Woensdag 08 Jun
01:00 9.4° 1015.1 hPa 0.5 m/s 0.4 mm
07:00 10.0° 1013.6 hPa 0.7 m/s 0.9 mm
13:00 15.0° 1013.1 hPa 0.8 m/s 2.1 mm
19:00 14.9° 1012.0 hPa 1.5 m/s 2.6 mm
 05:03     21:56    Daglengte: 16:53 Donderdag 09 Jun
01:00 9.6° 1012.9 hPa 1.1 m/s 0.5 mm
07:00 9.8° 1013.0 hPa 1.2 m/s 0.4 mm
13:00 15.6° 1013.7 hPa 1.4 m/s 0.1 mm
19:00 15.1° 1013.6 hPa 2.1 m/s 1.6 mm
 05:02     21:57    Daglengte: 16:55 Vrijdag 10 Jun
01:00 9.6° 1014.6 hPa 1.4 m/s 0.4 mm
FMI Hirlam - 7.5 km EWN WRFDA - 12 km DWD ICON - 7 km GFS - 25 km Basiskaart






























































Updatetijd (Europe/Amsterdam) Resolutie Lengte Stap
FMI Hirlam 01:45, 07:45, 13:45, 19:45 7.5 km 49h 1h
EWN WRFDA 04:15, 10:15, 16:15, 22:15 12 km 73h 1h
DWD ICON 05:45, 11:45, 17:45, 23:45 7 km 75h 1h
GFS 02:15, 08:15, 14:15, 20:15 25 km 237h 3h
30+ mm
25-30 mm
20-25 mm
15-20 mm
10-15 mm
6-10 mm
4-6 mm
2-4 mm
1-2 mm
0.5-1 mm
0.2-0.5 mm
0.1-0.2 mm
30+ mm
25-30 mm
20-25 mm
15-20 mm
10-15 mm
6-10 mm
4-6 mm
2-4 mm
1-2 mm
0.5-1 mm
0.2-0.5 mm
0.1-0.2 mm
Sneeuwval
Natte sneeuw
Hagel
Vorst
30+ mm
25-30 mm
20-25 mm
15-20 mm
10-15 mm
6-10 mm
4-6 mm
2-4 mm
1-2 mm
0.5-1 mm
0.2-0.5 mm
0.1-0.2 mm
Sneeuwval
Natte sneeuw
Hagel
Vorst
Onweer
50 mm
40 mm
30 mm
26 mm
22 mm
18 mm
14 mm
10 mm
9 mm
8 mm
7 mm
6 mm
5 mm
4.5 mm
4 mm
3.5 mm
3 mm
2.5 mm
2 mm
1.5 mm
1 mm
0.8 mm
0.6 mm
0.4 mm
0.2 mm
0.05 mm
35°
30°
25°
20°
15°
10°
-5°
-10°
-15°
-20°
-25°
-30°
-35°
33> m/s
29 m/s
25 m/s
21 m/s
17 m/s
14 m/s
11 m/s
8 m/s
5 m/s
3 m/s
0 m/s
2600 J/kg
2400 J/kg
2200 J/kg
2000 J/kg
1800 J/kg
1600 J/kg
1400 J/kg
1200 J/kg
1000 J/kg
800 J/kg
600 J/kg
400 J/kg
200 J/kg
70 dBZ
65 dBZ
60 dBZ
55 dBZ
50 dBZ
45 dBZ
40 dBZ
35 dBZ
30 dBZ
25 dBZ
20 dBZ
15 dBZ
10 dBZ
5 dBZ
-1 K
-2 K
-3 K
-4 K
-5 K
-6 K
-7 K
-8 K
-9 K
950 m²/s²
900 m²/s²
850 m²/s²
800 m²/s²
750 m²/s²
700 m²/s²
650 m²/s²
600 m²/s²
550 m²/s²
500 m²/s²
450 m²/s²
400 m²/s²
350 m²/s²
300 m²/s²
250 m²/s²
200 m²/s²
150 m²/s²
100 m²/s²
46 m/s
44 m/s
42 m/s
40 m/s
38 m/s
36 m/s
34 m/s
32 m/s
30 m/s
28 m/s
26 m/s
24 m/s
22 m/s
20 m/s
16 m/s
12 m/s
8 m/s
4 m/s
30 m/s
28 m/s
26 m/s
24 m/s
22 m/s
20 m/s
18 m/s
16 m/s
14 m/s
12 m/s
10 m/s
8 m/s
6 m/s
4 m/s
2 m/s
3.0
2.8
2.6
2.4
2.2
2.0
1.8
1.6
1.4
1.2
1.0
0.8
0.6
0.4
0.2
15
14
13
12
11
10
9
8
7
6
5
4
3
2
1
90%
80%
70%
60%
50%
40%
30%